Milton, FL

9:10 PM CST on December 16, 2017 (GMT -0600)
Whiting Field Naval Air Station (South)

Weather History for KNDZ - August, 2014

Change the Weather History Date:

Friday, August 15, 2014

  Actual Average (KNSE) Record (KNSE)
Temperature  
Mean Temperature 80 °F -  
Max Temperature 91 °F 87 °F 96 °F (2007)
Min Temperature 69 °F 70 °F 69 °F (1996)
Cooling Degree Days 15    
Growing Degree Days 30 (Base 50)    
Moisture  
Dew Point 66 °F    
Average Humidity 65    
Maximum Humidity 90    
Minimum Humidity 41    
Precipitation  
Precipitation 0.00 in - - ()
Sea Level Pressure  
Sea Level Pressure 29.95 in    
Wind  
Wind Speed 3 mph (NW)    
Max Wind Speed 7 mph    
Max Gust Speed -    
Visibility 10 miles    
Events      
Averages and records for this station are not official NWS values.
T = Trace of Precipitation, MM = Missing Value Source: NWS Daily Summary

Daily Weather History Graph

Daily Weather History Graph

Search for Another Location

Airport or City:

Trip Planner

Search our weather history database for the weather conditions in past years. The results will help you decide how hot, cold, wet, or windy it might be!

Date:

Astronomy

Aug. 15, 2014 Rise Set
Actual Time 6:14 AM CDT 7:30 PM CDT
Civil Twilight 5:49 AM CDT 7:55 PM CDT
Nautical Twilight 5:18 AM CDT 8:25 PM CDT
Astronomical Twilight 4:47 AM CDT 8:56 PM CDT
Moon 10:59 PM CDT (8/15) 11:30 AM CDT (8/15)
Length of Visible Light 14h 06m
Length of Day
13h 15m
Waning Gibbous, 69% of the Moon is Illuminated
Aug 15
Waning Gibbous
Aug 17
Last Quarter
Aug 25
New
Sep 2
First Quarter
Sep 8
Full

Hourly Weather History & Observations

Time (CDT) Temp. Heat Index Dew Point Humidity Pressure Visibility Wind Dir Wind Speed Gust Speed Precip Events Conditions
12:56 AM 73.0 °F - 68.0 °F 84% 29.94 in 10.0 mi NNW 4.6 mph - N/A   Mostly Cloudy
1:56 AM 73.0 °F - 68.0 °F 84% 29.93 in 10.0 mi Calm Calm - N/A   Mostly Cloudy
2:56 AM 71.1 °F - 66.9 °F 87% 29.93 in 10.0 mi Calm Calm - N/A   Clear
3:56 AM 70.0 °F - 66.9 °F 90% 29.94 in 10.0 mi Calm Calm - N/A   Clear
4:56 AM 69.1 °F - 66.0 °F 90% 29.94 in 10.0 mi NW 3.5 mph - N/A   Clear
5:56 AM 69.1 °F - 64.9 °F 87% 29.96 in 10.0 mi NW 3.5 mph - N/A   Mostly Cloudy
6:56 AM 71.1 °F - 64.0 °F 78% 29.97 in 10.0 mi NNW 3.5 mph - N/A   Clear
7:56 AM 75.0 °F - 64.9 °F 71% 29.99 in 10.0 mi NNW 4.6 mph - N/A   Scattered Clouds
8:56 AM 82.0 °F 83.8 °F 64.9 °F 56% 30.00 in 10.0 mi NNE 3.5 mph - N/A   Partly Cloudy
9:56 AM 86.0 °F 87.3 °F 64.0 °F 48% 30.00 in 10.0 mi Variable 4.6 mph - N/A   Scattered Clouds
10:56 AM 88.0 °F 88.7 °F 63.0 °F 43% 30.00 in 10.0 mi North 4.6 mph - N/A   Scattered Clouds
11:56 AM 88.0 °F 89.3 °F 64.0 °F 45% 29.97 in 10.0 mi Variable 6.9 mph - N/A   Scattered Clouds
12:56 PM 89.1 °F 91.0 °F 64.9 °F 45% 29.95 in 10.0 mi Calm Calm - N/A   Mostly Cloudy
1:56 PM 90.0 °F 91.7 °F 64.9 °F 43% 29.94 in 10.0 mi NW 5.8 mph - N/A   Mostly Cloudy
2:56 PM 91.9 °F 94.1 °F 64.9 °F 41% 29.93 in 10.0 mi NW 5.8 mph - N/A   Scattered Clouds
3:56 PM 91.0 °F 92.6 °F 64.0 °F 41% 29.93 in 10.0 mi Variable 3.5 mph - N/A   Scattered Clouds
4:56 PM 89.1 °F 93.7 °F 69.1 °F 52% 29.93 in 10.0 mi SSW 6.9 mph - N/A   Scattered Clouds
5:56 PM 87.1 °F 91.3 °F 69.1 °F 55% 29.92 in 10.0 mi SSW 6.9 mph - N/A   Scattered Clouds
6:56 PM 84.0 °F 87.8 °F 69.1 °F 61% 29.92 in 10.0 mi South 6.9 mph - N/A   Scattered Clouds
7:56 PM 81.0 °F 84.4 °F 70.0 °F 69% 29.91 in 10.0 mi Calm Calm - N/A   Scattered Clouds
8:56 PM 79.0 °F - 69.1 °F 72% 29.93 in 10.0 mi Calm Calm - N/A   Scattered Clouds
9:56 PM 79.0 °F - 68.0 °F 69% 29.94 in 10.0 mi Variable 3.5 mph - N/A   Partly Cloudy
10:56 PM 77.0 °F - 66.9 °F 71% 29.95 in 10.0 mi WNW 3.5 mph - N/A   Partly Cloudy
11:56 PM 75.0 °F - 66.9 °F 76% 29.95 in 10.0 mi WNW 3.5 mph - N/A   Clear